Regional Weather Roundup
Issued by NWS

Home | Current Version | Previous Version | Text Only | Print | Product List | Glossary Off
Versions: 1 2 3 4 5 6 7 8 9 10 11 12 13 14 15 16 17 18 19 20 21 22 23 24 25 26 27 28 29 30 31 32 33 34 35 36 37 38 39 40 41 42 43 44 45 46 47 48 49 50

000
ASUS43 KLSX 140657
RWRMO

WEATHER SUMMARY FOR MISSOURI
NATIONAL WEATHER SERVICE SPRINGFIELD MO
100 AM CST SUN FEB 14 2016

NOTE: "FAIR" INDICATES FEW OR NO CLOUDS BELOW 12,000 FEET WITH NO
       SIGNIFICANT WEATHER AND/OR OBSTRUCTIONS TO VISIBILITY.
       CURRENT SKY AND/OR WEATHER CONDITIONS ARE NOT AVAILABLE FOR
       CHILLICOTHE AND FARMINGTON.

MOZ001>031-035>038-043-044-053-054-140800-
...NORTHERN AND WESTERN MISSOURI...

CITY           SKY/WX    TMP DP  RH WIND       PRES   REMARKS
KANSAS CTY INT CLOUDY    22   5  48 E16       30.14F WCI   8
LEE`S SUMMIT   CLOUDY    24   5  44 SE12      30.14F WCI  13
ST JOSEPH      CLOUDY    22   3  44 SE13      30.18F WCI  10
CHILLICOTHE      N/A     22   5  48 SE9G18    30.25F WCI  12

$$
MOZ066>068-077>081-088>096-101>105-140800-
...SOUTHWEST MISSOURI...

CITY           SKY/WX    TMP DP  RH WIND       PRES   REMARKS
SPRINGFIELD    CLOUDY    28   5  37 SE17G28   30.14F WCI  16
JOPLIN         CLOUDY    36  12  37 SE14G20   30.08F WCI  27

$$
MOZ032>034-039>042-045>050-055>058-069>072-140800-
...CENTRAL MISSOURI...

CITY           SKY/WX    TMP DP  RH WIND       PRES   REMARKS
COLUMBIA       NOT AVBL
JEFFERSON CITY CLOUDY    24   4  42 E16       30.28F WCI  11
ROLLA          CLOUDY    23   3  42 SE10      30.24F WCI  12
SEDALIA        CLOUDY    25   4  40 E13       30.22F WCI  14

$$
MOZ051-052-059>065-140800-
...EAST CENTRAL MISSOURI...

CITY           SKY/WX    TMP DP  RH WIND       PRES   REMARKS
ST LOUIS INTL  CLOUDY    24   7  48 SE14      30.38F WCI  12

$$
MOZ072>076-082>087-097>100-106>115-140800-
...SOUTH CENTRAL AND SOUTHEAST MISSOURI...

CITY           SKY/WX    TMP DP  RH WIND       PRES   REMARKS
CAPE GIRARDEAU CLOUDY    25   8  48 E12       30.37F WCI  14
POPLAR BLUFF   CLOUDY    27   8  44 E8        30.35F WCI  19
WEST PLAINS    CLOUDY    24   4  42 SE8       30.29S WCI  15

$$


USA.gov is the U.S. government's official web portal to all federal, state and local government web resources and services.